Regional Weather Roundup
Issued by NWS

Home | Current Version | Previous Version | Graphics & Text | Print | Product List | Glossary On
Versions: 1 2 3 4 5 6 7 8 9 10 11 12 13 14 15 16 17 18 19 20 21 22 23 24 25 26 27 28 29 30 31 32 33 34 35 36 37 38 39 40 41 42 43 44 45 46 47 48 49 50
436
ASUS43 KLMK 210302
RWRKY
KENTUCKY REGIONAL WEATHER ROUNDUP
NATIONAL WEATHER SERVICE LOUISVILLE KY
1100 PM EDT FRI OCT 20 2017

NOTE "FAIR" INDICATES FEW OR NO CLOUDS BELOW 12,000 FEET
WITH NO SIGNIFICANT WEATHER AND/OR OBSTRUCTIONS TO VISIBILITY.

KYZ001>023-026-027-061>063-070>075-210400-
WESTERN AND SOUTH CENTRAL KENTUCKY

CITY           SKY/WX    TMP DP  RH WIND       PRES   REMARKS
PADUCAH        CLOUDY    59  50  72 SE3       30.12S
HENDERSON      PTCLDY    56  49  77 SE3       30.15R
OWENSBORO      PTCLDY    59  51  75 SE3       30.16S
HOPKINSVILLE   CLOUDY    60  49  65 CALM      30.16R
BOWLING GREEN  PTCLDY    54  51  90 CALM      30.18R
GLASGOW        NOT AVBL
$$

KYZ024-025-028>034-038-045-046-053-210400-
NORTH CENTRAL KENTUCKY

CITY           SKY/WX    TMP DP  RH WIND       PRES   REMARKS
LOUISVILLE/SDF CLOUDY    64  52  64 SE3       30.18R
LOUISVILLE/LOU CLOUDY    57  54  89 CALM      30.19R
FORT KNOX      CLOUDY    57  51  80 E5        30.16S
$$

KYZ035>037-039>044-047>052-055>060-089>105-210400-
NORTHEAST KENTUCKY

CITY           SKY/WX    TMP DP  RH WIND       PRES   REMARKS
LEXINGTON      CLEAR     60  51  72 SE7       30.21S
COVINGTON      PTCLDY    61  53  75 S5        30.20R
FRANKFORT      CLOUDY    54  48  80 CALM      30.19F
$$

KYZ054-064>069-076>088-106>120-210400-
SOUTHEAST KENTUCKY

CITY           SKY/WX    TMP DP  RH WIND       PRES   REMARKS
JACKSON        CLEAR     61  51  70 CALM      30.24S
LONDON         CLOUDY    54  50  86 CALM      30.23S
SOMERSET       NOT AVBL
MIDDLESBORO    CLEAR     50  49  97 CALM      30.26S
MONTICELLO     CLOUDY    47  46  97 W8        30.23S
$$





USA.gov is the U.S. government's official web portal to all federal, state and local government web resources and services.